Location: Combles
(50.0093°N, 2.8672°E)
Time: 03:55:08
(UTC+00:00)

Daily predictions for brighter satellites

Satellite Brightness Start Highest point End
(mag) Time Altitude Azimuth Time Altitude Azimuth Time Altitude Azimuth
Cosmos 2263 Rocket 3.2 03:57:51 43° E 03:57:51 43° E 04:02:37 10° NE
Cosmos 1452 Rocket 4.4 04:10:26 45° ESE 04:10:39 46° ESE 04:15:42 10° NE
Cosmos 2026 Rocket 4.3 04:15:30 26° N 04:19:02 62° ENE 04:25:15 10° SSE
Cosmos 2297 Rocket 4.3 04:25:04 15° N 04:25:04 15° N 04:26:19 10° NNE
Cosmos 2227 Rocket 4.2 04:30:05 16° N 04:30:05 16° N 04:31:29 10° NNE
Cosmos 2227 4.3 04:29:28 67° NNE 04:29:28 67° NNE 04:34:27 10° NNE
SKYMED 2 4.3 04:32:32 10° SSE 04:36:06 51° ESE 04:36:06 51° ESE
ATLAS CENTAUR R/B 3.1 04:39:25 27° NE 04:39:25 27° NE 04:42:51 10° E
Cosmos 1943 4.2 04:47:41 31° SSW 04:47:41 31° SSW 04:50:47 10° S
Cosmos 1634 Rocket 4.0 04:41:07 10° S 04:47:19 81° E 04:53:31 10° NNE
Meteor 1-18 Rocket 4.0 04:49:55 64° NNW 04:50:46 80° W 04:56:21 10° S
ATLAS 5 CENTAUR R/B 3.6 04:52:20 21° N 04:52:20 21° N 04:55:22 10° NE
Timation 1 Rocket 4.2 04:49:39 37° SSW 04:52:10 88° ESE 04:58:11 10° NNE
PSLV R/B 4.3 04:49:31 10° NNE 04:53:38 62° E 04:57:43 10° S
Cosmos 1627 Rocket 4.4 04:52:09 29° NNW 04:55:32 73° W 05:01:50 10° S
Cosmos 2195 Rocket 4.4 04:54:30 36° NNW 04:57:07 66° W 05:03:21 10° S
Cosmos 2082 Rocket 4.5 04:54:06 10° N 04:57:29 16° NNE 05:00:54 10° ENE
Okean 3 3.9 04:57:57 40° NNE 04:59:12 59° ENE 05:03:22 10° SSE
Geosat 3.9 04:59:25 10° SSE 05:04:28 84° WSW 05:05:42 53° NW
Cosmos 1340 4.3 05:11:00 25° NNE 05:11:00 25° NNE 05:12:40 10° NNE
Cosmos 1092 Rocket 4.2 05:09:36 45° W 05:09:36 45° W 05:15:01 10° SSW
Cosmos 1655 Rocket 4.2 05:04:30 10° N 05:10:46 73° E 05:16:58 10° SSE
Meteor 2-13 Rocket 4.5 05:09:15 10° N 05:15:26 81° E 05:21:36 10° SSE
Cosmos 2142 Rocket 4.4 05:10:29 10° S 05:16:54 82° W 05:23:19 10° N
Meteor 1-25 Rocket 4.3 05:12:45 10° SSW 05:18:15 53° WNW 05:23:53 10° N
Cosmos 1500 4.4 05:16:24 10° SSE 05:20:02 43° E 05:23:40 10° NNE
Cosmos 1515 3.5 05:19:47 70° NNW 05:20:10 83° W 05:24:00 10° S
Cosmos 1346 Rocket 2.5 05:16:27 10° SSW 05:20:18 77° W 05:24:15 10° N
Cosmos 1420 Rocket 4.3 05:21:02 43° NW 05:21:02 43° NW 05:25:51 10° NNE
BREEZE-M DEB (TANK) 3.3 05:17:38 30° WSW 05:21:00 77° S 05:24:08 10° E
GRACE-FO 1 4.5 05:19:41 10° S 05:23:18 70° WSW 05:23:18 70° WSW
GRACE-FO 2 4.5 05:20:05 10° S 05:23:42 70° WSW 05:23:42 70° WSW
MOS 1-B 4.3 05:18:52 10° NNE 05:24:42 90° WNW 05:30:29 10° SSW
COSMO-SKYMED 1 2.8 05:20:39 10° S 05:24:39 48° WSW 05:24:39 48° WSW
USA 234 3.3 05:21:20 10° ENE 05:27:54 85° SSE 05:33:33 15° SW
Cosmos 44 3.0 05:24:43 20° SW 05:27:55 88° SE 05:32:26 10° NE
Helios 1A Rocket 3.6 05:24:07 10° NNE 05:28:06 55° ESE 05:32:03 10° S
Meteor 2-4 Rocket 3.5 05:26:11 12° NNW 05:31:21 76° W 05:36:42 10° S
GEOS 3 Rocket 3.9 05:27:02 10° SSE 05:31:55 46° SW 05:33:29 36° W
ALOS 2.1 05:30:49 10° NNE 05:35:30 79° WNW 05:40:11 10° SSW
Cosmos 371 Rocket 3.3 05:31:10 10° SSW 05:36:01 84° ESE 05:40:55 10° NNE
Meteor 1-14 Rocket 4.4 05:30:53 10° SSW 05:36:44 55° WNW 05:42:39 10° N
Cosmos 1733 Rocket 3.1 05:32:45 10° S 05:37:03 77° E 05:41:24 10° NNE
Cosmos 2221 Rocket 3.8 05:36:22 39° WNW 05:37:18 45° W 05:41:30 10° SSW
Meteor 1-19 Rocket 4.5 05:38:20 23° NW 05:41:16 43° W 05:46:33 10° SSW
Cosmos 2263 Rocket 2.6 05:39:37 31° W 05:41:22 38° NW 05:46:34 10° NNE
Okean O Rocket 1.5 05:44:00 10° NNE 05:48:26 84° WNW 05:52:50 10° SSW
Cosmos 2266 Rocket 3.9 05:42:43 10° N 05:48:59 88° W 05:55:06 10° S
Cosmos 1452 Rocket 4.2 05:50:53 24° W 05:52:58 33° NW 05:57:44 10° N
FENGYUN 3A 3.6 05:49:08 10° N 05:54:28 63° WNW 05:59:46 10° SSW
CZ-4B DEB 4.2 05:50:39 10° N 05:56:05 59° WNW 06:01:31 10° SW
Cosmos 1833 Rocket 3.8 05:52:07 10° NNW 05:57:26 39° NE 06:02:43 10° ESE
Cosmos 2180 Rocket 4.4 05:52:09 10° SSW 05:58:14 64° WNW 06:04:24 10° N
METEOR-M 4.2 05:55:28 10° N 06:00:41 55° WNW 06:05:54 10° SW
Cosmos 1302 Rocket 4.3 05:57:15 10° SSW 06:02:30 71° ESE 06:07:48 10° NNE
Cosmos 1666 3.4 06:00:13 10° S 06:03:57 56° E 06:07:41 10° NNE
Cosmos 1674 Rocket 3.5 06:00:05 10° NNW 06:04:21 58° W 06:08:35 10° S
Cosmos 1975 Rocket 4.2 06:02:03 10° N 06:06:21 45° ENE 06:10:38 10° SSE
Cosmos 968 Rocket 3.9 06:02:09 10° NNW 06:07:18 62° ENE 06:12:22 10° SE
Cosmos 1484 Rocket 4.3 06:04:17 10° NNW 06:06:06 19° NW 06:06:06 19° NW
NOAA 6 4.0 06:04:35 10° N 06:09:40 62° WNW 06:14:42 10° SSW
Cosmos 1844 Rocket 2.6 06:06:49 10° SSW 06:12:25 80° WNW 06:18:02 10° NNE
Okean-O 4.3 06:08:49 10° NNE 06:12:59 38° E 06:17:06 10° SSE
SJ-7 4.3 06:10:29 10° N 06:14:27 60° WNW 06:18:22 10° SSW
COSMOS 2406 3.2 06:11:16 10° NNW 06:17:01 88° ENE 06:22:42 10° SSE
ATLAS CENTAUR R/B 1.4 06:15:37 18° NW 06:18:37 59° SW 06:22:28 10° SSE
CZ-4B R/B 3.3 06:13:08 10° N 06:18:38 58° WNW 06:24:10 10° SW
Cosmos 1844 3.7 06:13:28 10° SSW 06:19:17 87° WNW 06:25:06 10° NNE
Cosmos 2279 Rocket 4.4 06:13:57 10° SW 06:19:40 38° WNW 06:25:28 10° N
Radarsat Rocket 4.2 06:13:30 10° NNE 06:19:46 85° WNW 06:26:49 10° SSW
Cosmos 44 Rocket 3.8 06:15:27 10° SSW 06:20:15 62° SE 06:24:59 10° NE
Cosmos 1354 Rocket 4.4 06:14:57 10° NNW 06:20:16 66° ENE 06:25:33 10° SE
Cosmos 405 3.9 06:19:11 18° NW 06:20:59 28° W 06:24:02 10° SSW
NOSS 3-2 (A) 3.6 06:15:11 10° SW 06:21:01 80° SE 06:27:44 10° NE
Cosmos 1378 Rocket 3.7 06:16:57 10° NNW 06:21:16 54° W 06:25:36 10° S
CZ-4 R/B 3.9 06:19:33 10° NE 06:22:46 24° E 06:26:01 10° SSE
IRS-1C Rocket 4.2 06:19:47 10° NNE 06:25:05 82° ESE 06:30:21 10° SSW
Cosmos 839 Rocket 4.4 06:24:47 10° NW 06:31:14 77° NE 06:39:00 10° SE
Cosmos 304 Rocket 3.7 06:27:19 10° SSW 06:32:04 68° WNW 06:36:53 10° NNE
USA 238 DEB 3.7 06:26:14 10° SW 06:32:57 83° NW 06:39:59 10° NE
USA 238 3.7 06:26:20 10° SW 06:33:03 83° NW 06:40:04 10° NE
Cosmos 1331 Rocket 4.4 06:28:48 10° SW 06:33:39 41° WNW 06:38:35 10° NNE
H-2A R/B 2.6 06:30:04 10° N 06:33:48 66° WNW 06:37:34 10° SSW
CZ-2C R/B 4.1 06:30:23 10° SE 06:35:03 34° ENE 06:39:41 10° N
CENTAUR R/B 3.4 06:29:18 10° SSW 06:35:10 55° ESE 06:42:03 10° NE
CZ-2C R/B 3.8 06:30:57 10° S 06:35:43 76° WSW 06:40:32 10° NNW
ATLAS 5 CENTAUR R/B 3.7 06:33:58 10° NW 06:37:43 20° N 06:41:51 10° ENE
Cosmos 1536 3.2 06:34:34 10° SW 06:38:26 41° WNW 06:42:19 10° N
Cosmos 1743 3.2 06:36:31 10° S 06:40:16 63° E 06:44:04 10° NNE
Feng Yun 1-1 Rocket 4.3 06:35:03 10° NNE 06:40:40 86° WNW 06:46:27 10° SSW
Cosmos 2082 Rocket 2.8 06:37:21 10° NNW 06:42:54 55° NE 06:48:24 10° SE
SL-23 DEB 3.4 06:40:53 10° W 06:44:00 75° N 06:47:56 10° ENE
CORIOLIS 4.2 06:39:39 10° NNE 06:45:06 86° WNW 06:50:29 10° SSW
AQUARIUS 4.1 06:41:00 10° N 06:45:29 66° WNW 06:49:56 10° SSW
Aureole 2 4.3 06:46:54 10° NNW 06:50:24 69° WSW 06:53:28 10° SSE
ADEOS Rocket 3.4 06:44:15 10° S 06:50:49 52° W 06:56:45 10° NNW
Cosmos 1908 Rocket 3.9 06:50:32 10° SSW 06:54:49 44° WNW 06:59:07 10° N
Meteor 1-11 Rocket 4.4 06:54:45 10° SW 07:00:04 36° WNW 07:05:31 10° N
Cosmos 1842 3.7 06:56:27 10° N 07:00:24 65° ENE 07:04:19 10° SSE
SMAP 3.3 06:56:22 10° N 07:00:49 46° WNW 07:05:15 10° SW
YAOGAN 6 2.6 06:58:24 10° NNE 07:02:07 86° WNW 07:05:50 10° SSW
Helios 1A Rocket 4.3 07:00:09 10° NNW 07:02:54 18° WNW 07:05:39 10° WSW
Aureole 3 Rocket 4.4 06:56:39 10° S 07:03:20 62° E 07:08:05 10° NNE
